Weather in Hirsivka

Ukraine / Zaporizhia Region     46°38′25″N   35°23′24″E
temp.,
°C
wind,
m/s
gust,
m/s
humid.,
%
clouds,
%
prec.,
mm/h
press.,
hPa
HPBL,
m
15 may, sat
sat1500:00+14w346987 0.0 101244
03:00+13w34674 0.0 101358
06:00+13w12722 0.0 101319
09:00+19sw235226 0.0 1014447
12:00+23sw34415 0.0 10141387
15:00+24s544114 0.0 10131718
18:00+22s44491 0.0 1013378
21:00+16s22680 0.0 101311
16 may, sun
sun1600:00+15n11725 0.0 101311
03:00+14n33765 0.0 101335
06:00+14nne4775100 0.0 1012125
09:00+22ne5652100 0.0 1011450
12:00+27ene4634100 0.0 10091465
15:00+28ene5741100 0.0 10071904
18:00+25se456087 0.3 1005318
21:00+20ne4107994 2.0 1004204
17 may, mon
mon1700:00+18nne5783100 0.1 1002115
03:00+17ne5890100 1.3 1002157
06:00+17ese5128757 0.1 1001317
09:00+19s6888100 0.4 1003458
12:00+23ssw676611 0.0 1004931
15:00+21ssw8106539 0.0 1006801
18:00+19sw8106822 0.0 10061001
21:00+16s610840 0.0 1008395
18 may, tue
tue1800:00+15ssw71388100 0.1 1009581
03:00+16sw41286100 0.3 1008545
06:00+15s3788100 0.0 1009291
09:00+19ssw710625 0.0 1009863
12:00+22s7853100 0.0 10091199
15:00+22ssw101260100 0.1 10091262
18:00+21ssw710684 0.8 10091122
21:00+16sw377661 1.1 1010134
19 may, wed
wed1900:00+14sw4988100 0.1 1011196
03:00+13wsw339323 0.1 101245
06:00+13nw118821 0.0 101320
09:00+17e1161100 0.0 1013429
12:00+17sse3373100 0.8 1013425
15:00+14n1285100 4.1 1013179
18:00+13nnw2290100 1.4 1013146
21:00+12n3494100 2.0 1014129